Vorticity
8 7 7 7 7 7 7 7 6 6 7 7 7 7 8 7 8 7 7 7 6 7 7 7 8 8 8 9 10 8 10 10 10 12 12 11 10 12 13 13 15 15 14 14 16 12 13 13 10 10 8 12 10 11 11 8 11 5 11 7 10 15 12 35 14 -2 -1 -14 17 15 -4 7 4 11 5 0 13 18 21 9 5 8 1 -1 4 10 11 10
7 7 7 6 6 7 6 6 6 7 6 6 6 6 7 7 7 7 7 7 7 8 7 8 8 8 9 9 9 9 10 9 11 14 10 8 10 12 12 13 14 13 14 14 14 13 14 13 10 11 9 10 8 9 9 8 9 6 11 8 13 17 16 36 5 -22 -2 1 16 10 -2 5 5 11 4 -5 2 21 32 9 3 12 8 8 3 1 3 4
7 7 7 7 7 7 6 6 6 6 6 6 6 6 7 7 7 7 7 8 7 8 7 8 8 8 9 8 10 10 8 10 15 12 6 10 11 11 12 13 14 13 14 14 14 13 12 12 11 12 10 10 9 8 8 7 7 6 7 8 13 20 24 23 -1 -14 -7 5 17 9 1 -4 -1 12 8 13 9 7 20 10 4 8 10 17 10 4 6 6
7 7 7 7 6 7 7 6 6 6 6 6 6 6 6 6 7 7 8 8 7 8 8 8 8 8 9 9 10 9 9 13 14 8 7 12 11 11 13 12 13 12 12 13 13 13 10 11 11 11 10 10 10 8 8 7 7 8 4 10 13 19 27 -1 -11 4 -12 -2 20 8 5 1 0 6 5 14 6 1 12 10 12 7 5 11 6 3 7 10
7 7 7 7 6 7 6 6 6 6 6 5 6 5 6 6 6 7 7 8 8 8 8 8 9 9 9 9 9 8 11 13 12 10 11 11 11 12 13 11 13 11 12 13 12 13 11 12 11 10 10 9 10 7 9 9 7 10 5 9 11 15 27 -8 -23 3 -12 -6 18 6 2 7 4 -5 -5 9 9 9 11 10 17 13 9 10 6 3 4 6
7 7 7 7 6 7 6 6 6 6 6 5 6 5 5 6 6 7 7 8 8 8 9 9 9 9 10 10 9 9 11 13 13 12 9 8 9 9 12 14 14 11 10 11 11 12 11 11 11 10 11 8 9 8 8 10 6 9 8 9 12 13 23 3 -17 -5 -5 -2 10 8 3 -3 5 6 -4 8 17 9 4 7 5 6 12 10 7 9 9 9
8 7 7 7 6 7 6 7 6 6 6 6 6 6 5 6 6 7 7 8 8 8 9 9 9 10 10 10 10 10 10 13 14 9 5 7 7 7 11 13 13 12 9 10 10 12 11 11 11 10 11 8 8 9 6 7 7 7 8 8 12 15 19 10 -8 -11 -6 2 5 5 9 -4 -6 11 1 -5 8 4 2 10 3 4 8 6 10 13 12 12
8 8 8 8 7 7 7 7 7 6 7 6 6 6 5 6 6 6 7 7 7 8 9 9 10 9 9 10 10 10 11 14 14 11 9 10 9 8 9 9 10 11 9 9 9 10 12 10 11 10 9 9 7 8 7 7 7 6 8 9 10 15 18 8 -8 -10 -7 3 9 2 14 18 1 9 5 -10 4 11 9 15 11 10 9 7 12 12 9 9
9 9 9 9 8 7 7 7 7 6 7 6 6 6 6 6 6 6 6 7 7 7 8 9 9 9 9 10 9 10 12 13 13 13 12 10 10 7 6 8 7 9 10 10 9 9 11 10 11 10 8 9 7 6 7 6 7 6 6 8 10 13 16 8 -6 -6 -7 -2 15 16 20 27 17 17 15 5 10 12 11 12 6 6 10 10 8 6 6 6
10 10 9 9 9 8 8 7 7 7 7 7 7 6 6 6 6 6 6 6 7 7 8 9 8 9 9 9 10 10 11 11 14 17 14 8 8 6 5 5 3 6 8 9 11 10 9 10 10 10 9 8 8 6 7 6 5 7 6 6 8 10 14 15 3 -6 -9 -7 5 15 17 16 15 17 20 21 14 5 12 16 7 4 5 6 7 5 3 5
9 9 9 9 9 9 9 8 8 7 7 7 7 7 6 6 6 6 6 5 6 6 8 8 8 9 8 9 9 8 9 12 18 20 15 8 6 7 5 4 3 3 4 4 9 10 10 10 8 11 9 7 9 7 8 9 6 6 7 8 7 7 9 10 9 0 -6 -7 -10 -3 11 14 13 11 7 10 8 5 11 13 9 7 5 4 3 4 3 6
8 9 9 9 9 9 9 9 9 8 8 8 8 7 7 7 6 5 5 5 6 6 7 7 8 8 8 10 8 7 10 12 16 17 16 11 6 7 6 5 6 4 2 1 3 6 9 11 10 10 10 9 8 6 7 7 7 8 6 9 9 7 6 4 7 6 1 -1 -4 0 12 14 11 10 4 1 6 9 9 10 9 5 7 7 3 6 6 5
9 9 9 9 10 10 10 9 9 9 8 8 8 8 7 7 6 5 5 5 5 6 6 7 7 7 9 9 7 10 13 11 12 14 18 14 4 6 9 7 7 6 4 2 3 4 4 10 12 9 10 11 9 8 9 6 6 7 6 8 10 8 7 7 8 8 5 3 5 11 13 12 10 10 8 5 8 9 4 4 8 5 5 6 5 6 2 -1
9 9 9 9 9 10 10 10 10 10 9 9 8 8 8 7 7 5 5 5 5 6 5 6 7 7 9 7 8 11 13 12 12 13 17 14 5 5 9 9 8 9 8 3 5 6 3 5 9 11 11 9 9 10 11 11 9 6 8 7 7 11 9 9 12 11 7 1 3 11 12 12 12 12 11 10 8 5 3 4 7 6 4 5 4 2 0 2
8 9 9 9 10 10 10 11 10 10 9 9 8 8 8 8 7 6 5 5 5 5 5 6 6 7 7 8 9 10 12 16 14 13 16 13 8 6 8 10 10 12 13 7 5 7 7 3 5 10 9 8 9 9 7 10 12 9 9 8 7 10 6 6 12 11 9 5 4 8 10 10 12 12 9 10 10 5 8 9 7 9 10 11 10 4 4 9
8 8 9 9 10 10 11 11 11 11 10 9 9 8 8 8 7 6 6 5 5 5 5 5 6 7 7 8 9 10 13 19 16 15 17 13 8 6 7 10 10 11 13 12 8 7 10 6 5 6 4 7 11 9 7 7 8 9 9 9 9 9 6 7 10 9 8 8 8 8 7 7 11 14 9 6 7 8 10 1 -0 11 12 12 13 8 8 10
8 8 8 9 9 10 11 11 12 11 10 9 9 9 8 8 8 7 6 5 5 6 5 4 7 7 7 7 7 10 13 17 18 16 16 13 7 5 6 8 9 9 9 13 11 8 10 9 8 6 0 5 8 8 10 9 7 8 9 9 8 8 9 10 9 9 10 9 9 10 8 5 4 9 13 10 6 10 10 2 5 12 10 7 8 8 8 4
9 8 9 9 10 11 11 12 12 12 11 10 9 9 9 9 7 7 6 5 5 6 5 5 7 7 7 7 6 9 11 16 21 17 13 13 8 4 4 6 8 8 8 10 12 11 10 9 10 10 5 2 3 7 8 7 7 7 9 10 9 11 12 13 11 9 14 14 9 14 18 14 12 10 10 12 12 7 -0 4 13 11 11 7 2 7 6 4
9 9 9 9 10 11 12 14 13 12 12 10 10 9 9 9 7 8 6 5 5 6 6 5 6 6 7 7 6 8 10 15 20 15 12 13 9 5 4 6 8 7 8 9 12 12 10 10 10 12 12 5 3 6 4 3 5 6 8 9 9 11 11 14 16 15 20 15 6 13 15 17 29 24 9 9 14 3 -11 -0 6 0 15 17 3 3 3 7
10 10 11 11 11 11 12 15 15 14 13 12 11 9 11 10 8 9 6 4 6 6 5 6 7 8 7 7 6 8 8 14 19 14 13 13 10 7 4 6 8 6 8 10 11 12 11 10 10 12 14 13 9 7 5 3 3 5 7 7 6 7 3 2 16 27 22 9 1 2 1 3 21 30 24 18 13 7 2 3 -3 -9 13 21 6 3 9 14
10 10 12 12 12 13 13 14 15 17 16 15 13 10 11 11 9 11 7 4 6 7 6 7 7 8 8 6 5 5 6 14 21 17 13 13 10 8 7 7 7 8 8 10 11 12 14 12 10 10 10 12 13 11 10 7 7 7 6 7 5 7 2 -4 18 32 11 2 4 -1 1 -5 -1 27 35 13 -6 -1 18 20 2 -2 17 19 8 4 5 4
11 12 12 12 13 14 15 14 13 14 15 17 17 14 13 13 10 12 10 6 7 8 5 4 5 6 6 6 5 6 6 11 20 17 11 13 11 8 8 7 7 9 7 8 10 10 15 15 10 9 10 12 11 12 12 10 11 9 8 9 4 11 15 10 33 29 -11 -3 10 0 8 -3 -8 30 30 -1 -11 -10 17 35 7 -9 6 7 -2 -5 -7 -5
11 11 12 13 14 15 16 17 15 13 13 14 16 16 17 17 14 14 14 9 8 10 7 4 6 5 6 7 5 6 6 8 16 16 11 11 11 9 8 6 7 9 8 9 9 9 13 15 12 9 9 12 12 12 12 12 15 12 12 11 8 20 19 9 32 21 -27 -11 19 10 13 1 3 46 32 -7 -5 -12 -1 27 9 -10 -4 -6 -6 4 12 11
9 9 9 9 10 11 12 14 15 16 15 13 13 15 16 17 17 16 17 13 9 12 13 7 7 8 8 8 5 6 9 8 10 12 13 13 9 9 10 6 7 9 8 8 8 9 10 11 13 12 10 11 12 13 12 12 13 10 10 8 14 27 9 -12 12 19 -12 -0 27 16 9 -1 -3 40 40 -6 -12 -7 -6 8 8 5 7 5 10 14 11 3
8 9 9 8 8 8 7 8 10 13 15 16 15 16 14 14 16 15 16 15 10 11 14 7 4 7 8 6 6 7 6 8 9 7 12 16 9 9 11 6 7 9 8 9 9 10 10 10 10 11 13 12 10 12 12 12 11 10 10 7 16 25 13 -2 -0 5 2 14 27 7 0 6 -7 11 31 5 -9 -1 -1 -3 1 6 9 15 23 14 -2 -2
9 9 9 9 10 10 8 8 7 7 8 11 11 12 12 13 17 17 16 16 10 10 14 10 6 10 12 13 16 15 11 12 12 4 6 14 12 12 12 8 8 8 9 9 8 7 9 11 11 12 15 14 13 12 9 10 10 11 13 17 28 25 12 10 3 -5 -3 8 17 5 0 12 4 0 14 15 9 5 -1 -4 -5 -3 0 11 21 12 -2 -2
7 8 8 9 10 10 11 10 9 8 7 6 6 7 8 10 12 14 15 14 12 13 14 10 11 12 10 8 9 13 15 15 13 7 6 9 11 14 13 10 8 8 10 9 9 10 9 12 14 13 10 8 15 16 13 16 17 21 21 23 36 20 -5 3 9 4 4 1 4 7 5 3 2 -2 -6 3 11 4 6 9 2 -1 -2 3 8 -2 -13 -11
7 7 8 8 8 8 9 10 11 10 8 8 8 6 6 7 6 9 11 10 13 20 16 11 12 9 6 3 1 5 8 9 13 13 10 10 10 11 11 12 9 9 12 9 10 14 12 13 14 13 7 4 10 9 11 18 26 41 36 25 32 13 -8 5 7 3 8 7 6 11 12 8 7 10 13 26 22 -1 2 11 8 9 3 -3 -3 -10 -11 -4
10 10 10 9 9 9 9 10 12 11 11 11 11 10 8 7 7 7 8 4 4 12 10 5 9 9 7 8 6 7 6 5 10 11 9 10 11 10 9 10 9 8 10 9 9 10 10 13 11 11 10 8 6 0 8 15 19 32 24 15 28 13 -1 5 -2 2 4 -2 10 17 17 17 11 17 37 50 33 7 7 7 6 16 12 7 10 8 10 12
13 13 14 13 14 13 12 12 13 13 13 12 12 13 12 11 10 7 9 10 6 10 9 3 7 8 6 10 11 12 10 8 9 8 9 13 12 11 10 9 7 7 8 8 9 9 8 9 7 6 6 8 8 -1 6 16 14 19 14 13 28 24 23 13 -9 3 3 -13 6 16 8 9 8 16 23 16 11 12 12 5 6 15 12 9 14 13 13 12
15 14 15 15 15 15 15 14 14 13 13 13 13 13 13 13 13 11 13 16 12 17 19 12 13 13 8 8 7 6 8 10 11 7 7 11 12 12 11 12 12 9 9 9 11 14 10 3 4 8 8 10 10 -2 -1 10 12 18 17 13 16 16 31 28 -1 1 -2 -16 1 11 11 18 24 32 17 -8 -0 13 9 4 4 6 5 2 1 2 10 16
14 13 12 12 11 11 12 11 12 12 10 11 11 11 12 11 13 15 15 17 15 14 17 17 20 24 21 15 9 9 9 10 12 8 5 7 11 12 10 13 15 13 14 14 14 17 16 11 7 5 6 11 14 6 4 12 17 21 13 2 0 -1 14 30 21 9 -5 -12 -2 8 18 22 16 22 16 -3 -3 2 6 6 -2 -3 4 4 4 7 13 19
11 11 10 10 10 10 11 10 10 11 10 10 10 10 10 8 11 14 12 19 21 9 4 7 7 10 18 21 18 17 14 10 11 10 7 9 14 16 9 8 10 9 12 15 12 9 13 19 16 7 5 12 21 21 13 9 15 20 7 -5 -2 2 8 20 25 15 -0 -7 -14 -17 1 12 4 4 10 9 4 1 9 9 -1 2 7 2 6 14 17 16
11 13 12 11 11 11 12 12 12 12 11 11 11 10 11 11 13 14 12 16 20 13 9 9 3 -3 4 13 12 10 12 12 11 11 11 9 10 11 9 8 8 8 10 14 11 6 7 13 13 8 1 -3 5 17 15 6 7 10 8 1 -0 8 13 10 9 14 18 17 1 -13 -2 9 5 3 2 6 10 10 11 12 11 12 9 3 2 7 14 17
12 13 12 11 12 12 12 13 12 12 11 11 11 11 13 14 14 15 14 13 13 16 13 7 3 -1 -2 6 8 5 10 10 7 9 9 9 11 7 8 12 11 9 12 13 10 7 8 9 9 10 9 3 1 8 14 13 7 5 13 19 11 7 9 6 4 8 14 24 23 12 10 7 4 8 6 3 11 11 5 8 13 11 7 3 -0 -1 1 5
11 12 12 11 11 11 10 10 10 10 10 9 9 10 10 10 11 11 13 14 11 12 12 5 6 6 -3 -1 6 8 13 12 11 14 5 5 15 10 7 12 8 5 11 14 13 10 8 10 14 14 13 16 15 11 10 12 10 3 6 21 27 16 3 0 9 10 -1 4 15 12 9 7 4 7 7 7 13 12 8 7 6 6 9 5 3 4 -3 -5
11 11 12 11 11 11 11 11 11 10 10 10 9 10 10 9 9 9 9 12 11 12 12 2 4 15 7 -3 1 7 14 16 16 18 9 4 8 5 6 12 9 8 12 12 12 11 7 8 12 11 4 6 17 22 14 4 8 10 3 7 22 22 9 1 11 19 8 3 9 9 7 7 6 4 8 17 21 13 9 9 2 -3 4 6 7 11 4 -2
12 12 12 12 11 12 12 11 12 12 12 13 12 12 12 11 11 11 9 10 10 13 15 0 -5 16 21 5 2 5 8 13 12 8 9 9 7 5 9 10 7 8 10 9 11 12 9 6 8 9 3 0 9 21 20 7 4 12 8 4 8 8 6 5 8 16 17 9 7 9 9 8 7 4 4 12 18 14 10 12 11 6 5 3 1 6 8 5
12 12 11 11 11 12 12 12 13 12 12 12 12 11 12 12 12 14 14 13 11 12 20 13 -3 9 21 7 -0 4 1 6 17 13 7 7 9 11 13 7 4 6 6 5 8 12 11 4 6 11 5 1 4 10 20 20 13 10 7 9 16 11 2 5 7 6 9 11 10 7 6 7 7 9 13 9 5 9 9 5 6 8 8 7 3 3 5 6
10 10 11 12 15 15 14 13 11 11 11 10 11 11 11 11 10 11 11 12 12 11 15 13 -3 2 22 10 -4 3 -4 -10 12 22 7 0 7 11 13 10 6 4 5 7 6 9 12 7 6 11 5 1 6 7 10 14 13 12 4 1 13 14 1 2 8 8 6 8 13 12 10 11 10 11 17 12 4 12 18 12 9 9 8 9 7 4 5 9
10 11 12 12 14 13 12 12 12 13 13 11 13 13 12 12 12 12 12 8 11 15 16 16 6 4 21 17 -1 1 -4 -15 4 21 8 1 7 8 14 21 17 4 -1 7 10 5 7 11 8 6 6 7 10 10 8 4 4 7 3 -2 7 14 6 3 4 5 4 4 8 13 13 11 9 5 7 9 8 11 14 12 14 15 13 14 16 14 13 13
10 11 12 10 12 14 13 14 13 12 13 13 14 16 15 14 13 15 19 17 15 14 8 9 10 4 12 18 6 -2 -4 -11 0 14 9 6 5 4 17 24 15 9 3 1 9 6 1 10 13 5 5 9 8 7 7 6 3 4 3 2 8 13 11 13 15 9 3 3 5 11 16 12 5 4 4 4 5 5 4 4 6 7 6 7 14 20 23 20
9 9 10 10 12 13 13 12 12 14 17 17 17 17 14 13 13 13 16 17 14 9 0 0 9 8 8 16 9 -4 -6 -3 4 5 -1 7 11 5 18 26 8 10 17 2 3 11 -0 1 14 12 5 5 4 0 1 7 11 7 4 4 8 11 7 8 18 19 11 11 9 6 12 9 3 8 8 2 7 11 3 -1 4 6 3 -1 -0 3 9 14
7 7 9 11 11 13 13 14 18 22 24 23 20 17 12 11 13 10 8 10 10 12 14 16 16 7 2 12 13 -1 -11 -6 15 21 -1 -3 12 4 7 27 17 14 27 9 -4 10 6 -4 10 17 6 0 3 4 5 11 15 11 10 9 4 3 4 2 6 7 4 9 13 10 10 4 -2 6 6 -3 9 18 6 6 21 24 15 12 10 6 4 7
7 7 10 12 13 13 13 20 27 24 19 19 20 20 19 18 20 16 10 10 10 12 19 26 23 11 2 7 15 12 -2 -22 -11 25 20 -4 0 1 0 22 25 16 26 18 -3 1 5 -4 4 15 11 5 5 10 14 14 12 10 13 14 4 -3 -1 1 1 2 -2 -4 -0 4 9 8 2 3 1 -3 5 13 8 10 15 8 4 11 12 9 10 12
7 7 8 12 16 12 15 28 27 12 6 9 13 17 19 19 24 25 20 16 9 4 9 16 21 21 18 13 11 20 26 -2 -27 2 29 16 7 6 2 18 27 16 20 31 21 11 8 -0 -2 4 11 13 7 2 3 2 2 6 5 1 -0 -1 -0 -0 1 6 6 0 -4 -5 -3 -0 -1 -1 1 -3 -6 -2 6 7 -3 -13 -4 11 13 10 11 13
7 8 6 9 14 11 18 33 22 1 1 7 10 17 17 12 17 23 26 27 21 11 12 17 20 23 24 21 19 23 30 18 -6 -11 -1 8 19 19 5 13 30 25 19 32 36 26 17 10 2 -0 8 17 14 5 -2 -8 -12 -6 -1 -2 -1 0 4 8 5 4 11 15 11 5 3 4 3 1 2 2 3 10 18 16 6 -0 2 6 7 7 7 9
7 9 7 8 12 10 19 35 23 3 6 10 11 18 17 13 15 15 16 23 27 21 16 16 17 20 20 16 20 27 20 7 5 2 -12 -14 9 24 10 1 13 21 18 19 23 18 10 5 4 8 12 15 17 15 12 10 1 -11 -15 -11 -1 8 12 15 10 3 8 16 13 9 12 13 10 6 5 9 14 15 11 6 6 8 9 8 8 8 8 8
6 8 7 8 11 9 16 31 26 11 9 10 11 15 15 13 16 17 14 14 19 23 22 16 12 13 18 17 15 20 18 5 5 15 7 -12 -12 8 19 8 2 14 24 23 24 24 19 17 17 14 6 3 8 11 7 12 21 20 8 -4 -2 9 11 8 6 4 6 10 9 11 15 15 15 19 24 21 8 -5 -6 1 5 5 7 11 11 12 13 11
6 7 7 8 10 10 12 22 28 23 13 4 4 12 16 13 12 20 24 16 10 18 24 22 19 15 15 18 18 16 16 12 11 17 16 1 -18 -15 7 10 -2 5 19 19 20 25 25 31 37 30 16 6 8 15 14 7 7 20 34 31 21 18 12 7 6 2 2 9 10 10 10 7 5 9 18 19 10 2 4 7 5 5 9 12 11 10 11 11
7 7 7 8 8 11 12 14 23 31 21 5 2 10 17 15 11 13 23 22 13 15 21 19 19 25 23 19 20 19 13 10 15 19 20 17 2 -18 -16 -11 -17 -17 -11 -10 2 14 13 13 19 23 23 17 9 14 26 25 9 2 12 21 23 20 12 9 11 4 -3 4 11 13 11 5 -4 -13 -16 -10 -3 6 12 11 9 8 4 5 10 12 12 10
8 7 8 9 8 10 13 11 16 26 26 16 8 7 12 20 18 9 12 21 17 13 20 19 11 14 18 16 20 23 16 8 12 17 18 22 21 5 -7 -6 -5 -8 -11 -10 3 14 15 17 16 10 13 20 16 8 8 16 17 10 4 5 12 11 -4 -9 6 14 8 7 12 14 16 18 16 6 -3 -1 2 5 7 6 8 8 -0 -6 -1 8 14 14
Height
5761 5761 5761 5761 5762 5762 5762 5763 5763 5763 5763 5764 5764 5764 5764 5764 5764 5764 5764 5764 5764 5764 5763 5763 5763 5763 5763 5763 5763 5763 5763 5762 5762 5762 5761 5762 5762 5762 5762 5763 5763 5764 5764 5765 5766 5767 5768 5769 5770 5771 5772 5774 5776 5777 5779 5780 5781 5782 5784 5787 5790 5794 5796 5798 5798 5798 5800 5803 5804 5805 5805 5806 5805 5804 5804 5804 5804 5806 5806 5806 5805 5807 5810 5813 5815 5815 5814 5814
5758 5758 5758 5758 5758 5759 5759 5759 5759 5760 5760 5760 5760 5761 5761 5761 5761 5761 5761 5761 5760 5760 5760 5760 5760 5760 5760 5760 5760 5760 5760 5759 5759 5759 5759 5759 5759 5759 5760 5760 5760 5761 5762 5762 5763 5764 5765 5766 5767 5768 5770 5771 5773 5774 5776 5777 5778 5779 5782 5785 5789 5792 5794 5795 5794 5792 5795 5799 5800 5801 5801 5803 5805 5802 5803 5803 5802 5804 5804 5802 5803 5805 5808 5811 5812 5812 5812 5813
5754 5754 5755 5755 5755 5755 5755 5756 5756 5756 5756 5757 5757 5757 5757 5757 5758 5758 5758 5757 5757 5757 5757 5757 5757 5757 5756 5756 5756 5756 5757 5757 5756 5756 5756 5756 5756 5757 5757 5757 5758 5759 5759 5760 5761 5762 5763 5763 5765 5766 5767 5769 5770 5772 5773 5774 5775 5777 5780 5783 5787 5789 5791 5792 5791 5789 5793 5796 5797 5798 5798 5799 5802 5802 5803 5802 5799 5802 5802 5800 5801 5802 5807 5809 5810 5811 5811 5812
5751 5751 5751 5751 5752 5752 5752 5752 5753 5753 5753 5753 5754 5754 5754 5754 5754 5754 5754 5754 5754 5754 5754 5754 5753 5753 5753 5753 5753 5753 5754 5754 5754 5753 5754 5754 5754 5754 5755 5755 5756 5756 5757 5758 5759 5760 5760 5761 5762 5764 5765 5767 5768 5769 5770 5772 5773 5775 5777 5781 5785 5787 5787 5789 5788 5787 5790 5792 5793 5794 5795 5796 5798 5799 5800 5797 5796 5799 5801 5800 5801 5802 5805 5808 5809 5810 5810 5811
5747 5748 5748 5748 5748 5748 5749 5749 5749 5749 5750 5750 5750 5750 5750 5750 5751 5751 5751 5751 5751 5750 5750 5750 5750 5750 5750 5750 5750 5750 5751 5751 5751 5751 5751 5751 5751 5752 5752 5753 5754 5754 5755 5756 5757 5757 5758 5759 5760 5761 5762 5764 5765 5767 5768 5770 5771 5773 5775 5779 5782 5783 5785 5785 5783 5782 5785 5787 5788 5790 5792 5792 5793 5795 5795 5794 5796 5798 5799 5799 5801 5802 5803 5805 5807 5808 5809 5810
5744 5744 5745 5745 5745 5745 5745 5745 5746 5746 5746 5746 5746 5747 5747 5747 5747 5747 5747 5747 5747 5747 5747 5747 5747 5747 5747 5747 5747 5747 5747 5747 5748 5749 5749 5749 5749 5750 5750 5751 5751 5752 5753 5754 5755 5755 5756 5757 5758 5759 5760 5762 5763 5765 5767 5767 5768 5770 5773 5776 5779 5780 5782 5783 5780 5780 5781 5783 5784 5786 5788 5789 5789 5792 5793 5794 5796 5796 5796 5796 5799 5801 5802 5803 5804 5806 5808 5809
5741 5741 5741 5741 5741 5742 5742 5742 5742 5742 5742 5743 5743 5743 5743 5743 5744 5744 5744 5744 5744 5744 5744 5744 5744 5744 5744 5744 5744 5744 5744 5744 5745 5746 5747 5746 5746 5747 5748 5749 5750 5750 5751 5752 5752 5753 5754 5755 5756 5757 5758 5760 5761 5763 5764 5765 5765 5767 5770 5773 5776 5778 5779 5780 5778 5778 5778 5779 5780 5782 5785 5789 5788 5790 5793 5794 5794 5794 5794 5795 5798 5800 5800 5800 5802 5804 5806 5807
5737 5737 5738 5738 5738 5738 5738 5738 5738 5739 5739 5739 5739 5739 5740 5740 5740 5740 5740 5740 5741 5741 5741 5741 5741 5741 5741 5741 5741 5741 5741 5741 5741 5743 5743 5744 5745 5745 5746 5747 5748 5748 5749 5750 5751 5751 5752 5753 5754 5755 5756 5758 5759 5760 5761 5762 5763 5764 5767 5770 5773 5775 5776 5777 5775 5776 5777 5777 5778 5780 5783 5788 5787 5788 5792 5792 5791 5792 5793 5795 5797 5797 5798 5799 5800 5802 5804 5804
5734 5734 5734 5734 5734 5734 5735 5735 5735 5735 5735 5735 5736 5736 5736 5736 5737 5737 5737 5737 5737 5737 5738 5738 5738 5738 5738 5737 5737 5738 5738 5738 5738 5739 5740 5741 5742 5743 5743 5745 5746 5746 5747 5748 5748 5749 5750 5751 5752 5753 5754 5755 5756 5757 5758 5759 5761 5763 5765 5768 5770 5772 5773 5774 5774 5775 5776 5774 5775 5779 5783 5786 5785 5785 5790 5789 5787 5789 5791 5793 5795 5795 5797 5797 5799 5801 5801 5802
5730 5730 5730 5731 5731 5731 5731 5731 5731 5731 5731 5732 5732 5732 5732 5733 5733 5733 5734 5734 5734 5734 5735 5735 5734 5735 5734 5734 5734 5734 5734 5734 5734 5736 5737 5738 5739 5740 5741 5742 5743 5744 5745 5746 5746 5747 5748 5749 5750 5751 5752 5753 5754 5755 5756 5757 5759 5761 5762 5764 5766 5768 5770 5772 5773 5773 5773 5771 5771 5777 5781 5783 5783 5784 5787 5786 5785 5788 5790 5790 5792 5794 5795 5796 5797 5799 5799 5801
5726 5726 5727 5727 5727 5727 5727 5727 5727 5728 5728 5728 5728 5728 5729 5729 5729 5730 5730 5730 5731 5731 5731 5731 5731 5732 5731 5731 5731 5730 5730 5731 5732 5733 5734 5734 5736 5737 5738 5740 5741 5741 5743 5744 5744 5745 5746 5747 5747 5748 5749 5751 5752 5753 5755 5756 5758 5758 5759 5760 5762 5764 5766 5768 5770 5770 5770 5769 5771 5777 5779 5779 5781 5782 5784 5784 5784 5786 5788 5788 5790 5791 5792 5794 5795 5796 5798 5799
5723 5723 5723 5723 5723 5723 5723 5723 5724 5724 5724 5724 5724 5725 5725 5725 5726 5726 5726 5727 5727 5728 5728 5728 5729 5729 5729 5728 5727 5727 5727 5728 5729 5730 5731 5732 5733 5734 5736 5737 5738 5739 5740 5741 5742 5743 5744 5744 5745 5746 5747 5748 5749 5750 5752 5754 5755 5756 5757 5758 5761 5761 5762 5764 5765 5767 5768 5768 5772 5775 5776 5777 5778 5780 5782 5784 5783 5783 5784 5786 5788 5790 5790 5792 5793 5795 5796 5797
5719 5719 5719 5719 5719 5719 5719 5720 5720 5720 5720 5720 5721 5721 5721 5722 5722 5722 5723 5723 5724 5724 5725 5725 5725 5726 5726 5725 5724 5725 5724 5724 5724 5725 5728 5730 5729 5731 5733 5734 5735 5736 5737 5739 5740 5741 5741 5742 5743 5744 5745 5746 5747 5748 5750 5751 5752 5753 5755 5757 5759 5759 5760 5763 5764 5766 5767 5767 5771 5773 5773 5775 5777 5779 5781 5783 5784 5781 5780 5782 5786 5788 5789 5791 5792 5793 5794 5795
5715 5716 5716 5715 5715 5715 5716 5716 5716 5716 5716 5717 5717 5717 5717 5718 5718 5719 5719 5720 5720 5721 5721 5722 5722 5723 5723 5722 5721 5722 5722 5721 5721 5722 5725 5727 5727 5728 5729 5731 5732 5733 5734 5736 5737 5738 5739 5740 5740 5741 5743 5744 5745 5746 5748 5749 5750 5751 5753 5754 5756 5757 5759 5762 5763 5765 5766 5766 5769 5770 5770 5773 5776 5778 5780 5781 5782 5781 5779 5779 5781 5785 5787 5790 5791 5792 5793 5794
5712 5712 5712 5712 5712 5712 5712 5712 5712 5712 5713 5713 5713 5713 5714 5714 5714 5715 5716 5716 5717 5717 5718 5719 5719 5720 5720 5719 5719 5719 5718 5718 5719 5720 5721 5723 5725 5726 5726 5728 5729 5730 5731 5733 5734 5735 5736 5737 5738 5739 5741 5742 5742 5744 5745 5746 5748 5749 5750 5752 5754 5755 5758 5760 5761 5763 5764 5765 5767 5768 5767 5771 5774 5777 5778 5779 5781 5781 5779 5777 5778 5781 5784 5787 5790 5790 5790 5792
5708 5708 5708 5708 5708 5708 5708 5708 5708 5708 5709 5709 5709 5709 5710 5710 5710 5711 5712 5713 5713 5714 5715 5715 5716 5716 5717 5717 5716 5716 5716 5716 5716 5717 5719 5720 5722 5723 5724 5725 5726 5727 5729 5730 5731 5732 5733 5735 5735 5737 5738 5738 5739 5741 5742 5743 5745 5747 5749 5751 5752 5753 5755 5757 5759 5761 5762 5763 5764 5765 5765 5768 5772 5775 5776 5777 5779 5780 5779 5777 5778 5779 5779 5782 5786 5788 5788 5789
5704 5704 5704 5704 5704 5704 5704 5704 5704 5704 5705 5705 5705 5705 5706 5706 5707 5707 5708 5709 5710 5710 5711 5712 5713 5713 5714 5714 5714 5713 5713 5713 5713 5715 5716 5717 5718 5719 5721 5723 5724 5725 5726 5727 5728 5729 5731 5732 5733 5734 5735 5736 5737 5739 5739 5741 5744 5746 5747 5749 5750 5752 5753 5755 5757 5759 5760 5760 5761 5763 5764 5766 5770 5772 5774 5775 5777 5778 5777 5777 5779 5778 5777 5779 5782 5785 5788 5788
5700 5700 5700 5700 5700 5700 5700 5700 5701 5701 5701 5701 5701 5701 5702 5702 5703 5703 5704 5705 5706 5707 5707 5708 5710 5710 5710 5711 5711 5710 5710 5711 5712 5712 5713 5714 5715 5716 5718 5720 5721 5722 5723 5724 5726 5726 5727 5729 5729 5731 5732 5734 5736 5737 5738 5741 5743 5744 5745 5747 5748 5750 5751 5752 5755 5757 5758 5758 5759 5760 5761 5764 5768 5770 5771 5772 5774 5776 5776 5777 5779 5778 5776 5777 5778 5781 5785 5787
5696 5696 5696 5696 5696 5697 5697 5696 5697 5697 5697 5697 5698 5698 5698 5698 5699 5700 5701 5702 5703 5703 5704 5705 5707 5707 5707 5708 5707 5708 5708 5708 5709 5709 5709 5712 5713 5714 5716 5717 5719 5719 5720 5722 5723 5723 5724 5725 5726 5728 5731 5733 5734 5735 5737 5739 5741 5741 5743 5744 5745 5746 5747 5749 5752 5755 5756 5755 5756 5758 5759 5761 5765 5768 5769 5770 5771 5773 5775 5775 5775 5776 5775 5774 5776 5778 5780 5783
5693 5693 5692 5693 5693 5693 5693 5692 5693 5693 5693 5693 5694 5694 5694 5694 5695 5696 5698 5699 5699 5700 5701 5702 5704 5704 5704 5704 5705 5705 5705 5706 5707 5706 5707 5709 5710 5711 5713 5715 5716 5717 5718 5719 5720 5721 5721 5722 5725 5727 5730 5731 5732 5733 5734 5736 5737 5739 5740 5740 5741 5742 5743 5746 5749 5753 5755 5754 5754 5757 5758 5759 5763 5766 5768 5769 5769 5770 5772 5773 5773 5773 5773 5772 5773 5774 5776 5779
5689 5689 5689 5689 5689 5689 5689 5689 5689 5689 5689 5689 5690 5690 5690 5691 5691 5692 5694 5696 5696 5696 5698 5699 5700 5702 5701 5701 5702 5702 5702 5703 5704 5704 5705 5707 5708 5709 5711 5712 5713 5714 5716 5716 5717 5718 5718 5720 5724 5726 5727 5727 5728 5730 5731 5733 5734 5736 5737 5737 5738 5739 5740 5743 5747 5751 5753 5753 5753 5756 5758 5758 5760 5763 5766 5767 5767 5768 5769 5770 5771 5772 5772 5771 5771 5772 5773 5775
5685 5685 5685 5685 5685 5685 5685 5685 5685 5685 5685 5686 5686 5687 5687 5687 5688 5689 5690 5692 5694 5694 5694 5696 5697 5699 5699 5698 5699 5699 5700 5701 5702 5702 5702 5704 5706 5707 5707 5709 5710 5712 5713 5713 5714 5715 5717 5720 5722 5723 5723 5724 5725 5727 5728 5730 5732 5733 5734 5735 5736 5738 5741 5744 5746 5749 5752 5752 5753 5755 5757 5758 5759 5762 5765 5765 5765 5766 5767 5768 5770 5771 5771 5771 5771 5771 5771 5772
5682 5682 5682 5682 5682 5682 5682 5682 5682 5682 5682 5682 5682 5683 5684 5684 5685 5685 5686 5688 5691 5691 5691 5693 5694 5695 5696 5696 5696 5696 5697 5699 5700 5700 5700 5702 5704 5703 5705 5707 5708 5709 5710 5711 5712 5713 5715 5718 5718 5719 5720 5721 5722 5724 5725 5727 5729 5730 5731 5732 5735 5739 5742 5743 5745 5748 5750 5751 5752 5753 5755 5757 5758 5760 5762 5763 5764 5765 5766 5768 5770 5771 5771 5769 5769 5768 5767 5769
5679 5679 5679 5679 5679 5679 5679 5679 5679 5679 5679 5679 5679 5680 5680 5681 5681 5682 5683 5684 5687 5690 5688 5689 5691 5693 5694 5693 5692 5693 5695 5696 5697 5698 5698 5700 5701 5700 5702 5705 5705 5707 5708 5709 5709 5711 5714 5714 5714 5716 5717 5719 5720 5721 5722 5724 5726 5727 5728 5730 5734 5738 5739 5740 5742 5744 5747 5749 5750 5751 5754 5754 5754 5757 5759 5760 5762 5763 5765 5768 5769 5770 5769 5767 5765 5763 5764 5766
5676 5676 5676 5676 5676 5676 5676 5676 5676 5676 5676 5676 5677 5677 5677 5678 5678 5679 5680 5680 5684 5687 5686 5685 5689 5691 5691 5690 5690 5691 5692 5693 5695 5695 5695 5698 5698 5698 5700 5702 5703 5704 5705 5707 5707 5709 5711 5711 5712 5714 5715 5716 5717 5719 5720 5721 5723 5724 5726 5729 5733 5736 5737 5738 5739 5740 5742 5746 5748 5749 5751 5752 5752 5755 5757 5758 5759 5761 5763 5765 5767 5767 5766 5763 5761 5761 5762 5764
5673 5673 5673 5673 5673 5673 5673 5673 5673 5673 5674 5674 5674 5674 5674 5675 5676 5676 5677 5678 5680 5683 5683 5683 5686 5688 5688 5688 5688 5689 5690 5691 5693 5691 5692 5696 5696 5696 5698 5699 5701 5702 5703 5704 5705 5706 5708 5708 5710 5711 5712 5714 5715 5717 5718 5719 5720 5722 5724 5727 5730 5734 5736 5737 5738 5738 5739 5743 5745 5746 5748 5750 5751 5752 5754 5756 5758 5759 5761 5763 5764 5763 5760 5759 5760 5760 5761 5761
5670 5669 5669 5670 5670 5670 5670 5670 5670 5670 5671 5671 5671 5671 5672 5673 5673 5674 5675 5676 5678 5679 5680 5682 5684 5685 5684 5684 5686 5687 5687 5689 5690 5689 5690 5693 5694 5694 5695 5697 5699 5700 5701 5701 5701 5704 5706 5706 5708 5709 5710 5711 5713 5714 5716 5717 5717 5719 5722 5724 5727 5731 5735 5736 5736 5737 5738 5739 5740 5742 5744 5747 5749 5750 5752 5754 5756 5757 5759 5762 5763 5760 5757 5757 5758 5758 5758 5759
5666 5666 5666 5666 5667 5666 5667 5667 5667 5667 5668 5668 5668 5668 5669 5670 5671 5672 5672 5674 5676 5676 5678 5680 5681 5682 5681 5681 5684 5685 5685 5686 5687 5688 5688 5690 5691 5691 5693 5694 5696 5698 5698 5698 5699 5702 5704 5704 5705 5707 5708 5709 5711 5713 5714 5715 5715 5716 5719 5721 5724 5728 5731 5734 5735 5736 5737 5737 5737 5738 5741 5744 5746 5748 5750 5750 5753 5754 5756 5759 5759 5756 5754 5755 5755 5756 5757 5758
5663 5663 5663 5663 5664 5663 5663 5664 5664 5664 5664 5665 5665 5666 5666 5667 5668 5669 5669 5672 5674 5674 5675 5677 5678 5679 5679 5679 5681 5683 5683 5684 5685 5685 5685 5687 5689 5689 5691 5692 5693 5695 5695 5696 5697 5699 5701 5703 5704 5705 5706 5708 5710 5711 5712 5713 5714 5715 5716 5718 5721 5724 5727 5730 5732 5734 5734 5734 5736 5737 5738 5741 5743 5746 5747 5747 5749 5751 5754 5756 5754 5752 5753 5754 5754 5754 5755 5757
5660 5660 5659 5659 5660 5660 5661 5661 5661 5661 5661 5661 5662 5663 5663 5664 5665 5666 5667 5669 5671 5672 5673 5674 5676 5677 5677 5677 5679 5680 5681 5682 5682 5681 5682 5685 5686 5686 5688 5690 5690 5692 5693 5693 5695 5697 5699 5700 5701 5702 5704 5706 5708 5710 5711 5712 5713 5714 5714 5717 5720 5722 5724 5726 5729 5732 5731 5731 5734 5736 5737 5739 5741 5744 5745 5744 5745 5747 5750 5751 5749 5749 5751 5752 5752 5753 5754 5756
5657 5656 5656 5656 5657 5657 5658 5658 5658 5658 5658 5658 5659 5659 5660 5661 5661 5663 5665 5667 5669 5670 5670 5672 5674 5673 5674 5675 5676 5678 5679 5679 5680 5679 5679 5681 5684 5685 5686 5687 5688 5690 5690 5692 5694 5695 5696 5698 5699 5701 5702 5704 5706 5707 5709 5711 5711 5712 5713 5717 5719 5721 5723 5724 5726 5728 5727 5728 5731 5734 5737 5737 5738 5742 5742 5741 5742 5743 5745 5746 5745 5747 5749 5749 5750 5751 5753 5755
5654 5654 5654 5653 5653 5654 5655 5655 5655 5655 5655 5655 5656 5656 5657 5658 5658 5661 5663 5664 5666 5668 5667 5669 5671 5670 5671 5672 5673 5675 5676 5677 5678 5677 5677 5678 5681 5683 5684 5685 5686 5688 5689 5690 5692 5693 5694 5696 5698 5699 5700 5702 5704 5706 5707 5709 5709 5710 5712 5714 5716 5718 5721 5722 5724 5725 5725 5727 5730 5734 5735 5735 5737 5740 5739 5738 5739 5740 5742 5743 5744 5746 5746 5747 5749 5750 5753 5755
5652 5651 5651 5651 5651 5651 5652 5653 5652 5652 5652 5652 5653 5653 5654 5654 5656 5659 5660 5661 5664 5665 5664 5666 5668 5668 5669 5670 5671 5672 5673 5674 5675 5675 5675 5676 5678 5680 5682 5683 5684 5686 5687 5689 5690 5691 5692 5694 5696 5697 5698 5701 5702 5704 5706 5707 5708 5709 5711 5712 5713 5716 5718 5720 5722 5722 5724 5727 5730 5733 5734 5733 5735 5736 5735 5736 5737 5737 5739 5741 5743 5744 5744 5745 5747 5749 5752 5754
5649 5649 5649 5648 5648 5648 5649 5649 5649 5649 5649 5649 5650 5650 5650 5652 5655 5657 5657 5659 5661 5662 5663 5664 5664 5665 5667 5667 5668 5669 5670 5671 5672 5673 5674 5674 5675 5677 5679 5681 5682 5684 5686 5687 5688 5689 5690 5691 5693 5694 5697 5699 5701 5703 5705 5706 5707 5708 5710 5711 5712 5714 5716 5718 5720 5722 5724 5725 5728 5731 5732 5731 5732 5731 5732 5733 5733 5734 5736 5738 5740 5741 5741 5742 5744 5747 5751 5753
5646 5646 5646 5646 5645 5645 5646 5646 5646 5646 5646 5646 5647 5647 5649 5651 5653 5653 5654 5656 5657 5658 5660 5660 5661 5663 5663 5664 5665 5666 5668 5669 5669 5670 5671 5671 5673 5674 5677 5679 5680 5682 5684 5684 5686 5687 5688 5689 5692 5694 5695 5697 5700 5702 5703 5704 5705 5707 5709 5709 5710 5713 5715 5716 5718 5720 5722 5723 5726 5728 5728 5728 5729 5729 5729 5729 5730 5731 5732 5735 5737 5738 5738 5739 5742 5747 5750 5752
5643 5643 5643 5643 5643 5643 5643 5643 5643 5643 5643 5644 5644 5645 5647 5648 5649 5650 5651 5652 5653 5654 5654 5655 5657 5658 5659 5661 5663 5664 5665 5666 5667 5668 5668 5669 5670 5672 5674 5677 5678 5680 5682 5683 5684 5685 5686 5688 5691 5693 5694 5695 5697 5699 5701 5702 5703 5705 5706 5708 5710 5712 5713 5714 5716 5718 5719 5720 5722 5724 5724 5725 5727 5727 5726 5726 5727 5729 5729 5732 5735 5736 5736 5737 5741 5745 5748 5750
5641 5641 5641 5641 5640 5640 5640 5640 5640 5640 5640 5641 5641 5643 5644 5644 5645 5646 5647 5648 5649 5649 5649 5650 5652 5653 5656 5658 5660 5662 5664 5663 5663 5665 5666 5666 5667 5669 5671 5673 5676 5678 5680 5682 5682 5683 5684 5686 5689 5690 5691 5693 5695 5697 5699 5700 5702 5703 5705 5707 5709 5711 5712 5712 5714 5715 5716 5718 5720 5721 5721 5722 5724 5724 5722 5722 5724 5726 5727 5728 5732 5734 5734 5735 5739 5743 5746 5748
5639 5639 5639 5639 5638 5638 5637 5637 5637 5637 5637 5638 5638 5639 5640 5640 5642 5643 5644 5645 5646 5646 5646 5647 5648 5650 5654 5656 5657 5659 5661 5661 5661 5662 5663 5664 5665 5666 5668 5670 5672 5674 5677 5679 5679 5681 5682 5683 5686 5688 5689 5691 5693 5695 5696 5698 5700 5702 5703 5705 5707 5709 5709 5710 5711 5712 5713 5715 5717 5718 5719 5720 5721 5721 5720 5720 5721 5722 5723 5725 5728 5731 5732 5733 5737 5741 5743 5746
5637 5637 5637 5636 5636 5636 5635 5635 5634 5634 5634 5634 5635 5635 5636 5636 5637 5639 5640 5641 5643 5643 5644 5645 5645 5647 5649 5653 5655 5656 5656 5658 5658 5657 5659 5660 5661 5663 5666 5667 5668 5670 5672 5673 5675 5677 5679 5679 5682 5685 5687 5688 5690 5692 5695 5697 5699 5701 5702 5703 5705 5706 5707 5707 5709 5710 5711 5713 5714 5714 5715 5716 5718 5718 5718 5718 5720 5722 5722 5723 5726 5728 5730 5732 5735 5738 5741 5743
5635 5635 5634 5633 5633 5633 5632 5632 5631 5631 5631 5631 5631 5631 5632 5632 5633 5634 5635 5637 5638 5639 5641 5642 5642 5643 5646 5649 5652 5652 5651 5652 5652 5652 5654 5656 5658 5660 5662 5664 5666 5666 5668 5669 5671 5673 5675 5676 5680 5683 5685 5686 5687 5689 5693 5696 5698 5700 5700 5701 5703 5703 5704 5705 5706 5708 5709 5710 5710 5711 5711 5713 5714 5716 5716 5716 5720 5723 5722 5721 5723 5725 5727 5730 5732 5735 5738 5740
5633 5633 5632 5631 5631 5630 5629 5629 5628 5628 5628 5627 5627 5627 5627 5628 5629 5630 5630 5632 5634 5636 5638 5638 5638 5640 5643 5645 5647 5648 5648 5648 5648 5648 5649 5651 5653 5656 5658 5661 5662 5663 5665 5668 5670 5670 5671 5672 5676 5681 5683 5683 5684 5686 5689 5693 5695 5697 5699 5700 5701 5701 5701 5702 5704 5705 5707 5707 5707 5708 5709 5709 5711 5713 5714 5715 5718 5720 5720 5720 5721 5722 5725 5727 5730 5732 5735 5737
5632 5631 5630 5629 5629 5628 5627 5626 5625 5624 5624 5623 5623 5623 5623 5623 5624 5626 5627 5628 5629 5631 5631 5632 5634 5636 5638 5640 5643 5645 5645 5644 5644 5644 5645 5647 5650 5652 5654 5656 5659 5660 5662 5665 5667 5668 5668 5670 5673 5677 5680 5681 5681 5682 5685 5688 5690 5693 5696 5697 5699 5699 5699 5699 5701 5702 5704 5704 5704 5706 5707 5707 5708 5709 5711 5714 5717 5719 5719 5718 5718 5720 5722 5724 5726 5729 5731 5733
5630 5629 5628 5627 5626 5625 5624 5623 5622 5621 5620 5619 5619 5619 5618 5618 5619 5621 5622 5623 5623 5624 5624 5626 5629 5631 5632 5635 5638 5640 5641 5642 5643 5642 5643 5645 5647 5649 5650 5652 5655 5657 5659 5662 5664 5665 5666 5667 5670 5673 5676 5677 5679 5680 5681 5684 5686 5689 5691 5694 5696 5697 5696 5696 5697 5699 5700 5700 5701 5702 5704 5706 5706 5707 5708 5711 5714 5715 5716 5716 5716 5717 5720 5721 5723 5725 5727 5728
5628 5628 5627 5625 5624 5622 5621 5620 5618 5617 5616 5615 5615 5615 5614 5614 5615 5616 5617 5618 5619 5620 5621 5623 5624 5625 5627 5630 5634 5636 5638 5640 5642 5642 5642 5643 5644 5646 5647 5649 5651 5653 5655 5658 5660 5662 5664 5665 5667 5669 5672 5674 5676 5678 5680 5682 5683 5685 5687 5688 5690 5690 5691 5692 5694 5696 5697 5697 5698 5699 5702 5704 5705 5705 5706 5708 5709 5710 5711 5713 5714 5715 5717 5720 5721 5722 5724 5725
5626 5625 5624 5623 5621 5619 5618 5616 5615 5614 5613 5613 5612 5612 5611 5611 5612 5612 5613 5615 5615 5616 5617 5619 5620 5620 5622 5626 5630 5633 5635 5636 5638 5638 5638 5640 5641 5643 5645 5646 5647 5649 5652 5654 5657 5659 5661 5662 5664 5666 5668 5671 5673 5675 5677 5679 5680 5681 5681 5682 5683 5685 5687 5689 5691 5693 5694 5694 5695 5697 5699 5702 5703 5703 5705 5706 5706 5706 5707 5710 5712 5714 5716 5718 5719 5719 5720 5722
5625 5624 5622 5621 5620 5618 5615 5613 5612 5612 5612 5611 5610 5609 5609 5609 5609 5609 5610 5611 5611 5612 5613 5615 5616 5618 5619 5621 5625 5629 5631 5633 5634 5633 5633 5636 5640 5641 5643 5644 5645 5647 5649 5651 5653 5656 5657 5658 5660 5663 5666 5669 5671 5672 5674 5676 5677 5677 5677 5678 5681 5683 5685 5687 5688 5690 5690 5692 5693 5694 5696 5699 5701 5701 5702 5703 5703 5703 5704 5706 5709 5711 5714 5716 5718 5718 5718 5719
5624 5622 5621 5619 5618 5616 5614 5611 5610 5610 5610 5609 5608 5607 5607 5607 5606 5606 5606 5607 5608 5609 5610 5611 5613 5615 5615 5616 5620 5624 5627 5629 5628 5628 5631 5635 5638 5640 5641 5642 5643 5644 5646 5647 5649 5652 5655 5656 5658 5661 5664 5666 5667 5669 5672 5674 5674 5674 5675 5676 5678 5681 5683 5684 5686 5687 5688 5690 5691 5692 5693 5696 5698 5699 5699 5699 5700 5701 5703 5705 5706 5708 5710 5713 5715 5715 5715 5716
5623 5622 5620 5618 5616 5614 5612 5610 5609 5609 5608 5607 5606 5605 5605 5604 5604 5604 5604 5604 5604 5605 5606 5607 5609 5610 5611 5613 5616 5620 5623 5624 5625 5627 5632 5635 5636 5637 5639 5641 5642 5642 5643 5645 5647 5650 5652 5654 5656 5659 5660 5661 5663 5666 5669 5671 5671 5671 5672 5674 5676 5679 5680 5681 5682 5683 5685 5687 5688 5689 5691 5693 5695 5695 5696 5696 5697 5699 5701 5704 5705 5706 5707 5710 5711 5711 5712 5713
5622 5621 5619 5618 5616 5614 5611 5609 5608 5607 5606 5606 5605 5604 5603 5602 5602 5601 5601 5601 5602 5602 5603 5604 5606 5607 5609 5611 5614 5617 5620 5622 5623 5626 5630 5633 5634 5635 5637 5639 5641 5642 5642 5643 5645 5647 5648 5650 5653 5656 5657 5658 5660 5662 5664 5666 5667 5667 5669 5671 5674 5675 5676 5677 5678 5680 5683 5685 5685 5687 5689 5691 5692 5693 5693 5693 5693 5695 5698 5701 5704 5705 5706 5707 5708 5708 5709 5709
5621 5620 5618 5617 5615 5613 5611 5609 5607 5605 5605 5604 5604 5603 5601 5601 5600 5599 5599 5599 5599 5600 5600 5602 5603 5605 5607 5609 5612 5614 5617 5619 5622 5624 5627 5630 5632 5634 5635 5637 5639 5640 5640 5641 5643 5645 5646 5647 5649 5651 5653 5655 5656 5657 5659 5662 5663 5663 5664 5666 5668 5671 5673 5675 5676 5678 5680 5682 5683 5685 5687 5688 5689 5691 5691 5689 5688 5691 5695 5698 5701 5703 5704 5705 5705 5705 5706 5707
5620 5619 5617 5616 5614 5612 5610 5608 5606 5604 5604 5603 5603 5602 5600 5599 5599 5598 5597 5597 5598 5598 5599 5600 5601 5603 5605 5607 5609 5611 5613 5616 5619 5622 5624 5627 5629 5631 5633 5635 5635 5636 5637 5639 5641 5643 5644 5645 5646 5648 5649 5651 5653 5654 5656 5656 5657 5658 5660 5662 5664 5667 5670 5672 5674 5675 5678 5679 5680 5681 5683 5685 5686 5687 5687 5685 5685 5689 5693 5695 5698 5700 5702 5703 5703 5703 5703 5704
5619 5618 5616 5615 5613 5612 5610 5608 5606 5604 5603 5602 5602 5601 5600 5599 5598 5597 5596 5596 5596 5597 5597 5598 5599 5601 5603 5605 5607 5608 5610 5613 5617 5619 5621 5623 5626 5628 5631 5632 5633 5634 5635 5637 5639 5641 5641 5643 5645 5646 5646 5648 5650 5651 5652 5652 5653 5654 5656 5659 5662 5665 5667 5669 5671 5673 5675 5676 5677 5678 5679 5681 5681 5682 5682 5682 5685 5688 5690 5691 5694 5696 5698 5700 5700 5700 5701 5701